Time,TemperatureF,DewpointF,PressureIn,WindDirection,WindDirectionDegrees,WindSpeedMPH,WindSpeedGustMPH,Humidity,HourlyPrecipIn,Conditions,Clouds,dailyrainin,SolarRadiationWatts/m^2,SoftwareType,DateUTC
2013-03-02 00:09:00,22.9,20.0,30.34,NNW,328,4.0,-999.0,87,-99.99,,,0.00,0,weatherlink.com 1.10,2013-03-02 06:09:00,
2013-03-02 00:22:00,22.5,20.0,30.34,NNW,328,3.0,-999.0,88,-99.99,,,0.00,0,weatherlink.com 1.10,2013-03-02 06:22:00,
2013-03-02 00:37:00,22.4,19.0,30.35,NNW,328,5.0,-999.0,88,-99.99,,,0.00,0,weatherlink.com 1.10,2013-03-02 06:37:00,
2013-03-02 00:52:00,21.0,18.0,30.36,NNW,327,5.0,-999.0,88,-99.99,,,0.00,0,weatherlink.com 1.10,2013-03-02 06:52:00,
2013-03-02 01:07:00,20.0,17.0,30.36,NNW,327,2.0,-999.0,89,-99.99,,,0.00,0,weatherlink.com 1.10,2013-03-02 07:07:00,
2013-03-02 01:24:00,19.7,17.0,30.36,NW,325,3.0,-999.0,90,-99.99,,,0.00,0,weatherlink.com 1.10,2013-03-02 07:24:00,
2013-03-02 01:37:00,19.1,16.0,30.36,NW,323,4.0,-999.0,89,-99.99,,,0.00,0,weatherlink.com 1.10,2013-03-02 07:37:00,
2013-03-02 01:52:00,18.9,17.0,30.36,NW,320,4.0,-999.0,90,-99.99,,,0.00,0,weatherlink.com 1.10,2013-03-02 07:52:00,
2013-03-02 02:07:00,20.0,18.0,30.36,NW,317,4.0,-999.0,91,-99.99,,,0.00,0,weatherlink.com 1.10,2013-03-02 08:07:00,
2013-03-02 02:22:00,20.3,18.0,30.36,NW,317,5.0,-999.0,90,-99.99,,,0.00,0,weatherlink.com 1.10,2013-03-02 08:22:00,
2013-03-02 02:37:00,18.7,16.0,30.37,NW,312,5.0,-999.0,89,-99.99,,,0.00,0,weatherlink.com 1.10,2013-03-02 08:37:00,
2013-03-02 02:52:00,18.9,17.0,30.36,NW,309,4.0,-999.0,90,-99.99,,,0.00,0,weatherlink.com 1.10,2013-03-02 08:52:00,
2013-03-02 03:08:00,19.4,17.0,30.36,WNW,292,6.0,-999.0,91,-99.99,,,0.00,0,weatherlink.com 1.10,2013-03-02 09:08:00,
2013-03-02 03:22:00,19.1,17.0,30.36,WNW,288,5.0,-999.0,90,-99.99,,,0.00,0,weatherlink.com 1.10,2013-03-02 09:22:00,
2013-03-02 03:38:00,18.8,16.0,30.36,WNW,289,5.0,-999.0,90,-99.99,,,0.00,0,weatherlink.com 1.10,2013-03-02 09:38:00,
2013-03-02 03:53:00,17.9,16.0,30.36,WNW,289,4.0,-999.0,90,-99.99,,,0.00,0,weatherlink.com 1.10,2013-03-02 09:53:00,
2013-03-02 04:08:00,17.4,15.0,30.35,WNW,289,4.0,-999.0,90,-99.99,,,0.00,0,weatherlink.com 1.10,2013-03-02 10:08:00,
2013-03-02 04:23:00,18.0,16.0,30.35,WNW,288,5.0,-999.0,91,-99.99,,,0.00,0,weatherlink.com 1.10,2013-03-02 10:23:00,
2013-03-02 04:38:00,18.3,16.0,30.35,WNW,288,5.0,-999.0,91,-99.99,,,0.00,0,weatherlink.com 1.10,2013-03-02 10:38:00,
2013-03-02 04:53:00,18.6,16.0,30.35,WNW,288,4.0,-999.0,91,-99.99,,,0.00,0,weatherlink.com 1.10,2013-03-02 10:53:00,
2013-03-02 05:08:00,18.2,16.0,30.35,WNW,289,4.0,-999.0,91,-99.99,,,0.00,0,weatherlink.com 1.10,2013-03-02 11:08:00,
2013-03-02 05:23:00,17.8,16.0,30.36,WNW,289,4.0,-999.0,91,-99.99,,,0.00,0,weatherlink.com 1.10,2013-03-02 11:23:00,
2013-03-02 05:38:00,17.9,16.0,30.36,WNW,288,4.0,-999.0,92,-99.99,,,0.00,0,weatherlink.com 1.10,2013-03-02 11:38:00,
2013-03-02 05:53:00,17.3,15.0,30.36,WNW,288,4.0,-999.0,91,-99.99,,,0.00,0,weatherlink.com 1.10,2013-03-02 11:53:00,
2013-03-02 06:08:00,16.7,15.0,30.36,WNW,288,4.0,-999.0,91,-99.99,,,0.00,0,weatherlink.com 1.10,2013-03-02 12:08:00,
2013-03-02 06:23:00,17.8,16.0,30.35,WNW,288,3.0,-999.0,92,-99.99,,,0.00,0,weatherlink.com 1.10,2013-03-02 12:23:00,
2013-03-02 06:38:00,18.2,16.0,30.36,WNW,289,4.0,-999.0,92,-99.99,,,0.00,0,weatherlink.com 1.10,2013-03-02 12:38:00,
2013-03-02 06:53:00,18.0,16.0,30.36,WNW,288,4.0,-999.0,92,-99.99,,,0.00,0,weatherlink.com 1.10,2013-03-02 12:53:00,
2013-03-02 07:08:00,19.2,18.0,30.36,WNW,289,4.0,-999.0,93,-99.99,,,0.00,9,weatherlink.com 1.10,2013-03-02 13:08:00,
2013-03-02 07:23:00,19.8,18.0,30.36,WNW,288,4.0,-999.0,93,-99.99,,,0.00,21,weatherlink.com 1.10,2013-03-02 13:23:00,
2013-03-02 07:38:00,20.9,19.0,30.35,WNW,288,3.0,-999.0,93,-99.99,,,0.00,44,weatherlink.com 1.10,2013-03-02 13:38:00,
2013-03-02 07:53:00,21.5,20.0,30.36,WNW,288,3.0,-999.0,93,-99.99,,,0.00,91,weatherlink.com 1.10,2013-03-02 13:53:00,
2013-03-02 08:08:00,21.0,19.0,30.37,WNW,289,3.0,-999.0,92,-99.99,,,0.00,142,weatherlink.com 1.10,2013-03-02 14:08:00,
2013-03-02 08:23:00,21.9,20.0,30.37,WNW,288,0.0,-999.0,92,-99.99,,,0.00,239,weatherlink.com 1.10,2013-03-02 14:23:00,
2013-03-02 08:38:00,22.6,21.0,30.37,WNW,289,0.0,-999.0,92,-99.99,,,0.00,290,weatherlink.com 1.10,2013-03-02 14:38:00,
2013-03-02 08:53:00,23.5,21.0,30.37,WNW,289,0.0,-999.0,90,-99.99,,,0.00,343,weatherlink.com 1.10,2013-03-02 14:53:00,
2013-03-02 09:09:00,24.8,22.0,30.36,WNW,288,0.0,-999.0,89,-99.99,,,0.00,388,weatherlink.com 1.10,2013-03-02 15:09:00,
2013-03-02 09:24:00,26.2,23.0,30.37,WNW,288,0.0,-999.0,87,-99.99,,,0.00,432,weatherlink.com 1.10,2013-03-02 15:24:00,
2013-03-02 09:39:00,25.3,22.0,30.37,WNW,288,0.0,-999.0,88,-99.99,,,0.00,478,weatherlink.com 1.10,2013-03-02 15:39:00,
2013-03-02 09:55:00,26.5,23.0,30.36,WNW,288,0.0,-999.0,88,-99.99,,,0.00,522,weatherlink.com 1.10,2013-03-02 15:55:00,
2013-03-02 10:09:00,27.0,24.0,30.36,WNW,289,0.0,-999.0,88,-99.99,,,0.00,559,weatherlink.com 1.10,2013-03-02 16:09:00,
2013-03-02 10:25:00,27.5,24.0,30.36,WNW,288,0.0,-999.0,87,-99.99,,,0.00,596,weatherlink.com 1.10,2013-03-02 16:25:00,
2013-03-02 10:40:00,28.2,25.0,30.35,WNW,289,0.0,-999.0,88,-99.99,,,0.00,737,weatherlink.com 1.10,2013-03-02 16:40:00,
2013-03-02 10:55:00,29.0,25.0,30.34,WNW,288,3.0,-999.0,86,-99.99,,,0.00,629,weatherlink.com 1.10,2013-03-02 16:55:00,
2013-03-02 11:09:00,29.5,26.0,30.33,West,269,6.0,-999.0,85,-99.99,,,0.00,543,weatherlink.com 1.10,2013-03-02 17:09:00,
2013-03-02 11:24:00,30.2,26.0,30.33,West,259,4.0,-999.0,85,-99.99,,,0.00,622,weatherlink.com 1.10,2013-03-02 17:24:00,
2013-03-02 11:39:00,30.9,26.0,30.33,WSW,248,5.0,-999.0,82,-99.99,,,0.00,780,weatherlink.com 1.10,2013-03-02 17:39:00,
2013-03-02 11:54:00,31.3,26.0,30.32,SW,222,6.0,-999.0,81,-99.99,,,0.00,788,weatherlink.com 1.10,2013-03-02 17:54:00,
2013-03-02 12:10:00,31.9,26.0,30.32,SW,214,0.0,-999.0,79,-99.99,,,0.00,817,weatherlink.com 1.10,2013-03-02 18:10:00,
2013-03-02 12:25:00,32.4,27.0,30.31,SSW,212,0.0,-999.0,79,-99.99,,,0.00,680,weatherlink.com 1.10,2013-03-02 18:25:00,
2013-03-02 12:40:00,32.7,27.0,30.30,SSW,211,2.0,-999.0,79,-99.99,,,0.00,605,weatherlink.com 1.10,2013-03-02 18:40:00,
2013-03-02 12:55:00,33.2,27.0,30.29,SSW,212,0.0,-999.0,79,-99.99,,,0.00,754,weatherlink.com 1.10,2013-03-02 18:55:00,
2013-03-02 13:10:00,33.7,28.0,30.28,SSW,207,4.0,-999.0,78,-99.99,,,0.00,747,weatherlink.com 1.10,2013-03-02 19:10:00,
2013-03-02 13:25:00,33.8,28.0,30.27,SSW,198,7.0,-999.0,80,-99.99,,,0.00,740,weatherlink.com 1.10,2013-03-02 19:25:00,
2013-03-02 13:40:00,34.4,29.0,30.27,SSW,196,6.0,-999.0,79,-99.99,,,0.00,728,weatherlink.com 1.10,2013-03-02 19:40:00,
2013-03-02 13:55:00,34.6,29.0,30.26,SSW,196,3.0,-999.0,80,-99.99,,,0.00,710,weatherlink.com 1.10,2013-03-02 19:55:00,
2013-03-02 14:10:00,34.9,29.0,30.26,SSW,196,2.0,-999.0,80,-99.99,,,0.00,686,weatherlink.com 1.10,2013-03-02 20:10:00,
2013-03-02 14:25:00,35.3,29.0,30.26,SSW,196,3.0,-999.0,79,-99.99,,,0.00,657,weatherlink.com 1.10,2013-03-02 20:25:00,
2013-03-02 14:41:00,35.9,30.0,30.25,SSW,196,3.0,-999.0,78,-99.99,,,0.00,628,weatherlink.com 1.10,2013-03-02 20:41:00,
2013-03-02 14:56:00,36.3,30.0,30.23,SSW,196,0.0,-999.0,77,-99.99,,,0.00,594,weatherlink.com 1.10,2013-03-02 20:56:00,
2013-03-02 15:10:00,36.6,30.0,30.24,SSW,196,0.0,-999.0,77,-99.99,,,0.00,566,weatherlink.com 1.10,2013-03-02 21:10:00,
2013-03-02 15:25:00,37.0,30.0,30.23,SSW,197,0.0,-999.0,77,-99.99,,,0.00,526,weatherlink.com 1.10,2013-03-02 21:25:00,
2013-03-02 15:40:00,37.0,31.0,30.22,SSW,196,0.0,-999.0,79,-99.99,,,0.00,496,weatherlink.com 1.10,2013-03-02 21:40:00,
2013-03-02 15:55:00,37.5,32.0,30.21,SSW,196,0.0,-999.0,79,-99.99,,,0.00,413,weatherlink.com 1.10,2013-03-02 21:55:00,
2013-03-02 16:10:00,37.3,32.0,30.21,SSW,197,0.0,-999.0,80,-99.99,,,0.00,413,weatherlink.com 1.10,2013-03-02 22:10:00,
2013-03-02 16:25:00,37.8,32.0,30.20,SSW,196,0.0,-999.0,78,-99.99,,,0.00,353,weatherlink.com 1.10,2013-03-02 22:25:00,
2013-03-02 16:40:00,37.1,32.0,30.20,SSW,196,0.0,-999.0,82,-99.99,,,0.00,308,weatherlink.com 1.10,2013-03-02 22:40:00,
2013-03-02 16:55:00,37.1,33.0,30.20,SSW,196,0.0,-999.0,85,-99.99,,,0.00,171,weatherlink.com 1.10,2013-03-02 22:55:00,
2013-03-02 17:10:00,37.4,32.0,30.20,SSW,196,0.0,-999.0,82,-99.99,,,0.00,120,weatherlink.com 1.10,2013-03-02 23:10:00,
2013-03-02 17:25:00,37.4,32.0,30.19,SSW,197,0.0,-999.0,82,-99.99,,,0.00,93,weatherlink.com 1.10,2013-03-02 23:25:00,
2013-03-02 17:40:00,38.9,33.0,30.18,SSW,196,0.0,-999.0,78,-99.99,,,0.00,62,weatherlink.com 1.10,2013-03-02 23:40:00,
2013-03-02 17:55:00,38.3,32.0,30.19,SSW,196,0.0,-999.0,79,-99.99,,,0.00,26,weatherlink.com 1.10,2013-03-02 23:55:00,
2013-03-02 18:12:00,38.3,32.0,30.18,SSW,196,0.0,-999.0,79,-99.99,,,0.00,18,weatherlink.com 1.10,2013-03-03 00:12:00,
2013-03-02 18:27:00,37.4,32.0,30.18,SSW,196,0.0,-999.0,80,-99.99,,,0.00,11,weatherlink.com 1.10,2013-03-03 00:27:00,
2013-03-02 18:42:00,36.7,32.0,30.18,SSW,196,0.0,-999.0,82,-99.99,,,0.00,0,weatherlink.com 1.10,2013-03-03 00:42:00,
2013-03-02 18:57:00,37.1,32.0,30.17,SSW,196,0.0,-999.0,82,-99.99,,,0.00,0,weatherlink.com 1.10,2013-03-03 00:57:00,
2013-03-02 19:11:00,36.7,32.0,30.17,SSW,196,0.0,-999.0,83,-99.99,,,0.00,0,weatherlink.com 1.10,2013-03-03 01:11:00,
2013-03-02 19:26:00,36.7,32.0,30.17,SSW,196,0.0,-999.0,83,-99.99,,,0.00,0,weatherlink.com 1.10,2013-03-03 01:26:00,
2013-03-02 19:41:00,36.6,32.0,30.18,SSW,197,0.0,-999.0,83,-99.99,,,0.00,0,weatherlink.com 1.10,2013-03-03 01:41:00,
2013-03-02 19:56:00,36.6,32.0,30.17,SSW,196,0.0,-999.0,83,-99.99,,,0.00,0,weatherlink.com 1.10,2013-03-03 01:56:00,
2013-03-02 20:11:00,36.3,32.0,30.17,SSW,196,0.0,-999.0,84,-99.99,,,0.00,0,weatherlink.com 1.10,2013-03-03 02:11:00,
2013-03-02 20:26:00,36.0,32.0,30.17,SSW,196,0.0,-999.0,84,-99.99,,,0.00,0,weatherlink.com 1.10,2013-03-03 02:26:00,
2013-03-02 20:41:00,32.9,28.0,30.17,SSW,197,0.0,-999.0,81,-99.99,,,0.00,0,weatherlink.com 1.10,2013-03-03 02:41:00,
2013-03-02 20:56:00,31.9,29.0,30.16,SSW,196,0.0,-999.0,89,-99.99,,,0.00,0,weatherlink.com 1.10,2013-03-03 02:56:00,
2013-03-02 21:11:00,32.0,29.0,30.16,SSW,196,0.0,-999.0,88,-99.99,,,0.00,0,weatherlink.com 1.10,2013-03-03 03:11:00,
2013-03-02 21:26:00,31.0,28.0,30.16,SSW,196,0.0,-999.0,89,-99.99,,,0.00,0,weatherlink.com 1.10,2013-03-03 03:26:00,
2013-03-02 21:41:00,31.6,29.0,30.15,SSW,196,0.0,-999.0,90,-99.99,,,0.00,0,weatherlink.com 1.10,2013-03-03 03:41:00,
2013-03-02 21:56:00,31.6,29.0,30.15,SSW,196,0.0,-999.0,91,-99.99,,,0.00,0,weatherlink.com 1.10,2013-03-03 03:56:00,
2013-03-02 22:11:00,31.2,29.0,30.14,SSW,196,0.0,-999.0,91,-99.99,,,0.00,0,weatherlink.com 1.10,2013-03-03 04:11:00,
2013-03-02 22:26:00,32.1,30.0,30.14,SSW,196,0.0,-999.0,92,-99.99,,,0.00,0,weatherlink.com 1.10,2013-03-03 04:26:00,
2013-03-02 22:41:00,32.4,30.0,30.13,SSW,197,0.0,-999.0,91,-99.99,,,0.00,0,weatherlink.com 1.10,2013-03-03 04:41:00,
2013-03-02 22:56:00,31.7,29.0,30.12,SSW,196,0.0,-999.0,90,-99.99,,,0.00,0,weatherlink.com 1.10,2013-03-03 04:56:00,
2013-03-02 23:11:00,32.6,31.0,30.12,SSW,196,0.0,-999.0,92,-99.99,,,0.00,0,weatherlink.com 1.10,2013-03-03 05:11:00,
2013-03-02 23:26:00,29.4,27.0,30.11,SSW,196,0.0,-999.0,89,-99.99,,,0.00,0,weatherlink.com 1.10,2013-03-03 05:26:00,
2013-03-02 23:41:00,32.5,31.0,30.10,SSW,196,0.0,-999.0,92,-99.99,,,0.00,0,weatherlink.com 1.10,2013-03-03 05:41:00,
2013-03-02 23:56:00,33.5,30.0,30.09,SSW,197,0.0,-999.0,86,-99.99,,,0.00,0,weatherlink.com 1.10,2013-03-03 05:56:00,